TimeCST,TemperatureF,Dew PointF,Humidity,Sea Level PressureIn,VisibilityMPH,Wind Direction,Wind SpeedMPH,Gust SpeedMPH,PrecipitationIn,Events,Conditions,WindDirDegrees,DateUTC
12:08 AM,23.0,19.4,86,30.06,3.0,ENE,10.4,-,0.00,Snow,Light Snow,70,2013-02-21 06:08:00
12:15 AM,23.0,17.6,80,30.05,3.0,ENE,10.4,-,0.00,Snow,Light Snow,60,2013-02-21 06:15:00
12:53 AM,23.0,18.0,81,30.09,2.0,ENE,8.1,-,0.00,Snow,Light Snow,70,2013-02-21 06:53:00
1:07 AM,23.0,17.6,80,30.05,4.0,ENE,8.1,-,0.00,Snow,Light Snow,70,2013-02-21 07:07:00
1:31 AM,23.0,17.6,80,30.03,2.0,East,8.1,-,0.00,Snow,Light Snow,90,2013-02-21 07:31:00
1:53 AM,24.1,18.0,77,30.06,2.0,East,10.4,-,0.00,Snow,Light Snow,90,2013-02-21 07:53:00
2:10 AM,23.0,19.4,86,30.01,1.5,East,11.5,-,0.00,Snow,Light Snow,80,2013-02-21 08:10:00
2:53 AM,23.0,19.9,88,30.01,1.2,ENE,11.5,-,0.00,Snow,Light Snow,70,2013-02-21 08:53:00
3:12 AM,24.8,19.4,80,29.96,2.5,East,10.4,19.6,0.00,Snow,Light Snow,90,2013-02-21 09:12:00
3:21 AM,24.8,19.4,80,29.95,2.5,East,12.7,19.6,0.00,Snow,Light Snow,80,2013-02-21 09:21:00
3:34 AM,24.8,19.4,80,29.94,1.8,ENE,13.8,21.9,0.00,Snow,Light Snow,70,2013-02-21 09:34:00
3:48 AM,24.8,19.4,80,29.93,0.8,East,15.0,21.9,0.00,Snow,Light Snow,80,2013-02-21 09:48:00
3:53 AM,24.1,19.9,84,29.98,1.5,East,16.1,21.9,0.00,Snow,Light Snow,90,2013-02-21 09:53:00
4:00 AM,24.8,19.4,80,29.93,1.2,East,11.5,21.9,0.00,Snow,Light Snow,80,2013-02-21 10:00:00
4:28 AM,24.8,19.4,80,29.94,0.8,East,11.5,19.6,0.00,Snow,Light Snow,80,2013-02-21 10:28:00
4:53 AM,23.0,19.4,86,29.92,0.8,East,10.4,18.4,N/A,Snow,Light Snow,80,2013-02-21 10:53:00
5:14 AM,23.0,19.4,86,29.92,0.8,ENE,11.5,18.4,0.00,Snow,Light Snow,70,2013-02-21 11:14:00
5:29 AM,23.0,19.4,86,29.92,0.5,East,11.5,-,0.00,Fog-Snow,Snow,80,2013-02-21 11:29:00
5:53 AM,23.0,19.0,85,29.95,0.5,ENE,13.8,19.6,0.00,Fog-Snow,Snow,70,2013-02-21 11:53:00
6:53 AM,21.9,19.0,89,29.96,0.5,ENE,9.2,-,0.00,Fog-Snow,Snow,60,2013-02-21 12:53:00
7:53 AM,21.0,18.0,88,29.93,0.5,ENE,10.4,18.4,0.00,Fog-Snow,Snow,60,2013-02-21 13:53:00
8:08 AM,21.2,17.6,86,29.89,0.2,ENE,12.7,-,0.00,Fog-Snow,Heavy Snow,70,2013-02-21 14:08:00
8:53 AM,21.0,18.0,88,29.91,0.2,NE,8.1,-,0.00,Fog-Snow,Snow,40,2013-02-21 14:53:00
9:02 AM,21.2,17.6,86,29.86,0.5,NE,10.4,-,0.00,Fog-Snow,Snow,40,2013-02-21 15:02:00
9:19 AM,21.2,17.6,86,29.86,0.8,NE,11.5,-,0.00,Snow,Light Snow,40,2013-02-21 15:19:00
9:53 AM,21.0,17.1,85,29.91,0.5,NNE,10.4,-,0.00,Fog-Snow,Snow,30,2013-02-21 15:53:00
10:05 AM,21.2,17.6,86,29.86,0.5,NNE,10.4,19.6,0.00,Fog-Snow,Snow,30,2013-02-21 16:05:00
10:53 AM,21.9,17.1,82,29.91,0.5,NNE,12.7,-,0.00,Snow,Snow,30,2013-02-21 16:53:00
11:43 AM,21.2,17.6,86,29.83,0.2,NNE,13.8,-,0.00,Fog-Snow,Light Snow,30,2013-02-21 17:43:00
11:53 AM,21.9,17.1,82,29.87,0.5,NE,15.0,-,0.00,Snow,Snow,40,2013-02-21 17:53:00
12:02 PM,21.2,17.6,86,29.81,0.5,NE,13.8,-,0.00,Fog-Snow,Light Snow,50,2013-02-21 18:02:00
12:11 PM,21.2,17.6,86,29.80,0.8,NE,15.0,-,0.00,Snow,Light Snow,40,2013-02-21 18:11:00
12:21 PM,21.2,17.6,86,29.79,0.8,NNE,11.5,20.7,0.00,Snow,Light Snow,30,2013-02-21 18:21:00
12:27 PM,21.2,17.6,86,29.80,1.0,NE,13.8,20.7,0.00,Snow,Light Snow,40,2013-02-21 18:27:00
12:53 PM,21.9,17.1,82,29.84,1.0,NE,15.0,-,0.00,Snow,Light Snow,50,2013-02-21 18:53:00
1:08 PM,21.2,17.6,86,29.80,0.8,NE,12.7,19.6,0.00,Snow,Light Snow,40,2013-02-21 19:08:00
1:29 PM,21.2,17.6,86,29.80,1.0,NNE,11.5,-,0.00,Snow,Light Snow,30,2013-02-21 19:29:00
1:36 PM,21.2,17.6,86,29.79,2.0,NE,9.2,-,0.00,Snow,Light Snow,40,2013-02-21 19:36:00
1:44 PM,21.2,17.6,86,29.79,4.0,NNE,9.2,-,0.00,Snow,Light Snow,30,2013-02-21 19:44:00
1:53 PM,21.9,17.1,82,29.84,6.0,NNE,10.4,-,0.00,,Haze,30,2013-02-21 19:53:00
2:17 PM,21.2,17.6,86,29.78,2.0,NE,10.4,-,0.00,Snow,Light Snow,40,2013-02-21 20:17:00
2:49 PM,21.2,17.6,86,29.77,1.8,NNE,11.5,-,0.00,Snow,Light Snow,30,2013-02-21 20:49:00
2:53 PM,21.9,18.0,85,29.81,1.2,NNE,11.5,-,0.00,Snow,Light Snow,20,2013-02-21 20:53:00
3:05 PM,21.2,17.6,86,29.76,0.8,NNE,12.7,-,0.00,Snow,Light Snow,20,2013-02-21 21:05:00
3:23 PM,23.0,19.4,86,29.76,0.2,NNE,9.2,-,N/A,Fog-Snow,Heavy Snow,30,2013-02-21 21:23:00
3:33 PM,23.0,19.4,86,29.76,0.2,NNE,9.2,-,0.00,Fog-Snow,Heavy Snow,30,2013-02-21 21:33:00
3:53 PM,23.0,19.0,85,29.80,0.5,NNE,6.9,-,0.00,Fog-Snow,Snow,20,2013-02-21 21:53:00
4:06 PM,23.0,19.4,86,29.75,0.8,NNE,10.4,-,0.00,Snow,Light Snow,30,2013-02-21 22:06:00
4:53 PM,21.9,19.0,89,29.81,1.0,North,10.4,-,0.00,Snow,Light Snow,350,2013-02-21 22:53:00
5:06 PM,21.2,19.4,93,29.77,1.5,NNW,10.4,-,0.00,Snow,Light Snow,340,2013-02-21 23:06:00
5:13 PM,21.2,19.4,93,29.77,1.8,NNW,9.2,-,0.00,Snow,Light Snow,340,2013-02-21 23:13:00
5:35 PM,21.2,17.6,86,29.78,0.5,NW,11.5,-,0.00,Fog-Snow,Snow,320,2013-02-21 23:35:00
5:53 PM,21.9,19.0,89,29.83,0.5,NW,11.5,-,0.00,Fog-Snow,Snow,320,2013-02-21 23:53:00
6:20 PM,21.2,17.6,86,29.79,1.0,NW,12.7,-,0.00,Snow,Light Snow,320,2013-02-22 00:20:00
6:31 PM,21.2,17.6,86,29.79,2.5,NW,12.7,-,0.00,Snow,Light Snow,320,2013-02-22 00:31:00
6:53 PM,21.9,18.0,85,29.85,1.8,NW,12.7,-,0.00,Snow,Light Snow,320,2013-02-22 00:53:00
7:20 PM,21.2,17.6,86,29.81,1.8,NW,10.4,-,0.00,Snow,Light Snow,310,2013-02-22 01:20:00
7:27 PM,21.2,17.6,86,29.81,2.0,NW,11.5,-,0.00,Snow,Light Snow,310,2013-02-22 01:27:00
7:43 PM,21.2,17.6,86,29.81,3.0,NW,11.5,-,0.00,Snow,Light Snow,310,2013-02-22 01:43:00
7:53 PM,21.0,18.0,88,29.86,3.0,NW,11.5,-,0.00,Snow,Light Snow,310,2013-02-22 01:53:00
8:53 PM,17.1,14.0,88,29.88,6.0,WNW,11.5,-,0.00,Snow,Light Snow,300,2013-02-22 02:53:00
9:53 PM,18.0,15.1,88,29.89,9.0,WNW,12.7,-,0.00,,Overcast,290,2013-02-22 03:53:00
10:53 PM,18.0,14.0,84,29.91,9.0,WNW,11.5,-,N/A,,Overcast,290,2013-02-22 04:53:00
11:17 PM,15.8,12.2,86,29.87,9.0,West,13.8,-,N/A,,Scattered Clouds,280,2013-02-22 05:17:00
11:53 PM,14.0,10.0,84,29.94,10.0,West,13.8,-,N/A,,Clear,280,2013-02-22 05:53:00